Find Starlink 34123

NORAD ID: 63891 Int'l Des: 2025-095 Owner: SPXS Country: US Constellation: starlink operational
LEOCIRCULAR

現在のビュー

3D地球を読み込み中...

Starlink 34123について

説明を読み込み中...

次回通過

Passes for default location (London). Set your location on the main map for personalized predictions.

高度履歴

Loading altitude history...

軌道要素

1 63891U 25095B 26151.14128549 .00034065 00000-0 12412-2 0 9997
2 63891 43.0000 70.9319 0001233 268.3133 91.7577 15.27594178 60393
Epoch: May 31, 2026 • Age: 18 hours

現在のステータス

高度 485.0 km
速度 7.62 km/s
衛星直下点 -13.06°S, 48.8°E
打ち上げ日 May 10, 2025
運用期間 1 years
タイプ internet

技術仕様

分類 Payload
質量 575.00 kg
乾燥質量 530.00 kg
総質量 575.00 kg
長さ 0.30 m
直径 4.10 m
スパン 29.00 m
形状 Box + pan
製造者 SPXS
バスタイプ Starlink V2MO
フェーズステータス In Orbit
所有者/国 SPXS/US

Most Searched